Location: Bailleul
(50.3375°N, 2.8513°E)
Time: 14:47:40
(UTC+00:00)

Cosmos 2263 Rocket - Pass Details

Date: 16 June 2021
Orbit: 822 x 850 km, 71.0° (Epoch: 30 July)

Event Time Altitude Azimuth Distance (km) Brightness Sun altitude
Rises 20:45:57 0° 325° (NW) 3,420 7.9 -5.9°
Reaches altitude 10° 20:48:35 10° 317° (NW) 2,483 6.5 -6.2°
Maximum altitude 20:53:42 36° 253° (WSW) 1,329 3.5 -6.7°
Drops below altitude 10° 20:58:49 10° 189° (S) 2,471 4.2 -7.2°
Enters shadow 21:01:15 - 181° (S) 3,335 4.8 -7.4°
